Location: Peach Mountain Observatory
(42.3967°N, 83.9367°W)
Time: 20:25:51
(UTC-05:00)

Vanguard 1 Rocket - Pass Details

Date: 26 January 2020
Orbit: 650 x 4226 km, 34.3° (Epoch: 21 February)

Event Time Altitude Azimuth Distance (km) Brightness Sun altitude
Rises 17:51:25 0° 275° (W) 6,883 13.1 -2.5°
Reaches altitude 10° 17:57:49 10° 260° (W) 6,426 13.5 -3.6°
Maximum altitude 18:10:39 19° 224° (SW) 6,398 12.7 -5.8°
Drops below altitude 10° 18:25:34 10° 188° (S) 7,411 12.4 -8.4°
Sets 18:34:22 0° 173° (S) 8,248 12.4 -10.0°
